site,time,unit,value
Tiverton Junction,2024-04-17T00:05:00+01:00,MW,0.7529999999999999
Tiverton Junction,2024-04-17T00:10:00+01:00,MW,0.7069999999999994
Tiverton Junction,2024-04-17T00:15:00+01:00,MW,0.742
Tiverton Junction,2024-04-17T00:20:00+01:00,MW,0.7179999999999997
Tiverton Junction,2024-04-17T00:25:00+01:00,MW,0.6439999999999997
Tiverton Junction,2024-04-17T00:30:00+01:00,MW,0.6589999999999998
Tiverton Junction,2024-04-17T00:35:00+01:00,MW,0.48599999999999977
Tiverton Junction,2024-04-17T00:40:00+01:00,MW,0.6909999999999998
Tiverton Junction,2024-04-17T00:45:00+01:00,MW,0.7410000000000003
Tiverton Junction,2024-04-17T00:50:00+01:00,MW,0.6839999999999995
Tiverton Junction,2024-04-17T00:55:00+01:00,MW,0.7089999999999999
Tiverton Junction,2024-04-17T01:00:00+01:00,MW,0.6689999999999996
Tiverton Junction,2024-04-17T01:05:00+01:00,MW,0.6900000000000004
Tiverton Junction,2024-04-17T01:10:00+01:00,MW,0.81
Tiverton Junction,2024-04-17T01:15:00+01:00,MW,0.7710000000000006
Tiverton Junction,2024-04-17T01:20:00+01:00,MW,0.6800000000000002
Tiverton Junction,2024-04-17T01:25:00+01:00,MW,0.7450000000000003
Tiverton Junction,2024-04-17T01:30:00+01:00,MW,0.7489999999999999
Tiverton Junction,2024-04-17T01:35:00+01:00,MW,0.7579999999999998
Tiverton Junction,2024-04-17T01:40:00+01:00,MW,0.5750000000000002
Tiverton Junction,2024-04-17T01:45:00+01:00,MW,0.7510000000000003
Tiverton Junction,2024-04-17T01:50:00+01:00,MW,0.8300000000000001
Tiverton Junction,2024-04-17T01:55:00+01:00,MW,0.8339999999999996
Tiverton Junction,2024-04-17T02:00:00+01:00,MW,0.7620000000000002
Tiverton Junction,2024-04-17T02:05:00+01:00,MW,0.8359999999999999
Tiverton Junction,2024-04-17T02:10:00+01:00,MW,0.7309999999999999
Tiverton Junction,2024-04-17T02:15:00+01:00,MW,0.7979999999999998
Tiverton Junction,2024-04-17T02:20:00+01:00,MW,0.7230000000000001
Tiverton Junction,2024-04-17T02:25:00+01:00,MW,0.6460000000000001
Tiverton Junction,2024-04-17T02:30:00+01:00,MW,0.7349999999999997
Tiverton Junction,2024-04-17T02:35:00+01:00,MW,0.8000000000000003
Tiverton Junction,2024-04-17T02:40:00+01:00,MW,1.0129999999999995
Tiverton Junction,2024-04-17T02:45:00+01:00,MW,1.2529999999999994
Tiverton Junction,2024-04-17T02:50:00+01:00,MW,1.169
Tiverton Junction,2024-04-17T02:55:00+01:00,MW,1.2499999999999996
Tiverton Junction,2024-04-17T03:00:00+01:00,MW,1.2730000000000004
Tiverton Junction,2024-04-17T03:05:00+01:00,MW,1.3069999999999995
Tiverton Junction,2024-04-17T03:10:00+01:00,MW,1.2640000000000002
Tiverton Junction,2024-04-17T03:15:00+01:00,MW,1.25
Tiverton Junction,2024-04-17T03:20:00+01:00,MW,1.314
Tiverton Junction,2024-04-17T03:25:00+01:00,MW,1.149
Tiverton Junction,2024-04-17T03:30:00+01:00,MW,1.1160000000000003
Tiverton Junction,2024-04-17T03:35:00+01:00,MW,1.2750000000000004
Tiverton Junction,2024-04-17T03:40:00+01:00,MW,1.321
Tiverton Junction,2024-04-17T03:45:00+01:00,MW,1.2149999999999999
Tiverton Junction,2024-04-17T03:50:00+01:00,MW,1.225
Tiverton Junction,2024-04-17T03:55:00+01:00,MW,1.4179999999999997
Tiverton Junction,2024-04-17T04:00:00+01:00,MW,1.3689999999999998
Tiverton Junction,2024-04-17T04:05:00+01:00,MW,1.3080000000000007
Tiverton Junction,2024-04-17T04:10:00+01:00,MW,1.3119999999999996
Tiverton Junction,2024-04-17T04:15:00+01:00,MW,1.3020000000000003
Tiverton Junction,2024-04-17T04:20:00+01:00,MW,1.411
Tiverton Junction,2024-04-17T04:25:00+01:00,MW,1.4579999999999995
Tiverton Junction,2024-04-17T04:30:00+01:00,MW,1.5220000000000005
Tiverton Junction,2024-04-17T04:35:00+01:00,MW,1.4589999999999996
Tiverton Junction,2024-04-17T04:40:00+01:00,MW,1.4289999999999998
Tiverton Junction,2024-04-17T04:45:00+01:00,MW,1.317
Tiverton Junction,2024-04-17T04:50:00+01:00,MW,1.3770000000000002
Tiverton Junction,2024-04-17T04:55:00+01:00,MW,1.3639999999999997
Tiverton Junction,2024-04-17T05:00:00+01:00,MW,1.379
Tiverton Junction,2024-04-17T05:05:00+01:00,MW,1.3750000000000002
Tiverton Junction,2024-04-17T05:10:00+01:00,MW,1.1770000000000003
Tiverton Junction,2024-04-17T05:15:00+01:00,MW,1.2799999999999996
Tiverton Junction,2024-04-17T05:20:00+01:00,MW,1.3779999999999997
Tiverton Junction,2024-04-17T05:25:00+01:00,MW,1.4369999999999996
Tiverton Junction,2024-04-17T05:30:00+01:00,MW,1.3000000000000003
Tiverton Junction,2024-04-17T05:35:00+01:00,MW,1.3559999999999999
Tiverton Junction,2024-04-17T05:40:00+01:00,MW,1.3280000000000003
Tiverton Junction,2024-04-17T05:45:00+01:00,MW,1.2979999999999998
Tiverton Junction,2024-04-17T05:50:00+01:00,MW,1.3230000000000002
Tiverton Junction,2024-04-17T05:55:00+01:00,MW,1.3380000000000005
Tiverton Junction,2024-04-17T06:00:00+01:00,MW,1.3059999999999994
Tiverton Junction,2024-04-17T06:05:00+01:00,MW,1.1590000000000005
Tiverton Junction,2024-04-17T06:10:00+01:00,MW,1.287
Tiverton Junction,2024-04-17T06:15:00+01:00,MW,1.384
Tiverton Junction,2024-04-17T06:20:00+01:00,MW,1.269
Tiverton Junction,2024-04-17T06:25:00+01:00,MW,1.4580000000000006
Tiverton Junction,2024-04-17T06:30:00+01:00,MW,1.3319999999999999
Tiverton Junction,2024-04-17T06:35:00+01:00,MW,1.38
Tiverton Junction,2024-04-17T06:40:00+01:00,MW,1.4240000000000004
Tiverton Junction,2024-04-17T06:45:00+01:00,MW,1.4370000000000003
Tiverton Junction,2024-04-17T06:50:00+01:00,MW,1.5349999999999993
Tiverton Junction,2024-04-17T06:55:00+01:00,MW,1.2679999999999998
Tiverton Junction,2024-04-17T07:00:00+01:00,MW,1.3290000000000006
Tiverton Junction,2024-04-17T07:05:00+01:00,MW,1.4540000000000002
Tiverton Junction,2024-04-17T07:10:00+01:00,MW,1.4220000000000002
Tiverton Junction,2024-04-17T07:15:00+01:00,MW,1.4699999999999998
Tiverton Junction,2024-04-17T07:20:00+01:00,MW,1.4129999999999994
Tiverton Junction,2024-04-17T07:25:00+01:00,MW,1.4170000000000003
Tiverton Junction,2024-04-17T07:30:00+01:00,MW,1.3169999999999993
Tiverton Junction,2024-04-17T07:35:00+01:00,MW,1.5140000000000007
Tiverton Junction,2024-04-17T07:40:00+01:00,MW,1.4329999999999994
Tiverton Junction,2024-04-17T07:45:00+01:00,MW,1.331
Tiverton Junction,2024-04-17T07:50:00+01:00,MW,1.3449999999999998
Tiverton Junction,2024-04-17T07:55:00+01:00,MW,1.3199999999999998
Tiverton Junction,2024-04-17T08:00:00+01:00,MW,1.2580000000000005
Tiverton Junction,2024-04-17T08:05:00+01:00,MW,1.177
Tiverton Junction,2024-04-17T08:10:00+01:00,MW,1.174
Tiverton Junction,2024-04-17T08:15:00+01:00,MW,1.161
Tiverton Junction,2024-04-17T08:20:00+01:00,MW,1.1540000000000004
Tiverton Junction,2024-04-17T08:25:00+01:00,MW,1.0900000000000003
Tiverton Junction,2024-04-17T08:30:00+01:00,MW,0.8490000000000006
Tiverton Junction,2024-04-17T08:35:00+01:00,MW,1.0369999999999995
Tiverton Junction,2024-04-17T08:40:00+01:00,MW,0.9289999999999994
Tiverton Junction,2024-04-17T08:45:00+01:00,MW,1.363
Tiverton Junction,2024-04-17T08:50:00+01:00,MW,1.162
Tiverton Junction,2024-04-17T08:55:00+01:00,MW,1.3860000000000006
Tiverton Junction,2024-04-17T09:00:00+01:00,MW,0.8609999999999998
Tiverton Junction,2024-04-17T09:05:00+01:00,MW,0.7320000000000002
Tiverton Junction,2024-04-17T09:10:00+01:00,MW,0.9459999999999997
Tiverton Junction,2024-04-17T09:15:00+01:00,MW,1.3689999999999996
Tiverton Junction,2024-04-17T09:20:00+01:00,MW,1.3090000000000002
Tiverton Junction,2024-04-17T09:25:00+01:00,MW,0.6210000000000004
Tiverton Junction,2024-04-17T09:30:00+01:00,MW,0.5460000000000003
Tiverton Junction,2024-04-17T09:35:00+01:00,MW,1.0789999999999997
Tiverton Junction,2024-04-17T09:40:00+01:00,MW,1.286
Tiverton Junction,2024-04-17T09:45:00+01:00,MW,1.186
Tiverton Junction,2024-04-17T09:50:00+01:00,MW,1.516
Tiverton Junction,2024-04-17T09:55:00+01:00,MW,1.1960000000000002
Tiverton Junction,2024-04-17T10:00:00+01:00,MW,1.3319999999999999
Tiverton Junction,2024-04-17T10:05:00+01:00,MW,1.517
Tiverton Junction,2024-04-17T10:10:00+01:00,MW,1.721
Tiverton Junction,2024-04-17T10:15:00+01:00,MW,1.6119999999999997
Tiverton Junction,2024-04-17T10:20:00+01:00,MW,1.7439999999999998
Tiverton Junction,2024-04-17T10:25:00+01:00,MW,1.637
Tiverton Junction,2024-04-17T10:30:00+01:00,MW,1.569
Tiverton Junction,2024-04-17T10:35:00+01:00,MW,1.6909999999999998
Tiverton Junction,2024-04-17T10:40:00+01:00,MW,1.7640000000000002
Tiverton Junction,2024-04-17T10:45:00+01:00,MW,1.6800000000000006
Tiverton Junction,2024-04-17T10:50:00+01:00,MW,1.657
Tiverton Junction,2024-04-17T10:55:00+01:00,MW,1.0159999999999996
Tiverton Junction,2024-04-17T11:00:00+01:00,MW,1.3580000000000005
Tiverton Junction,2024-04-17T11:05:00+01:00,MW,1.5189999999999997
Tiverton Junction,2024-04-17T11:10:00+01:00,MW,1.6119999999999997
Tiverton Junction,2024-04-17T11:15:00+01:00,MW,1.521
Tiverton Junction,2024-04-17T11:20:00+01:00,MW,1.3769999999999998
Tiverton Junction,2024-04-17T11:25:00+01:00,MW,0.921
Tiverton Junction,2024-04-17T11:30:00+01:00,MW,0.21799999999999997
Tiverton Junction,2024-04-17T11:35:00+01:00,MW,1.1190000000000002
Tiverton Junction,2024-04-17T11:40:00+01:00,MW,1.1310000000000002
Tiverton Junction,2024-04-17T11:45:00+01:00,MW,1.2250000000000005
Tiverton Junction,2024-04-17T11:50:00+01:00,MW,1.17
Tiverton Junction,2024-04-17T11:55:00+01:00,MW,0.9600000000000004
Tiverton Junction,2024-04-17T12:00:00+01:00,MW,0.9420000000000002
Tiverton Junction,2024-04-17T12:05:00+01:00,MW,1.2200000000000002
Tiverton Junction,2024-04-17T12:10:00+01:00,MW,1.263
Tiverton Junction,2024-04-17T12:15:00+01:00,MW,1.1210000000000004
Tiverton Junction,2024-04-17T12:20:00+01:00,MW,0.734
Tiverton Junction,2024-04-17T12:25:00+01:00,MW,1.0830000000000002
Tiverton Junction,2024-04-17T12:30:00+01:00,MW,1.3190000000000004
Tiverton Junction,2024-04-17T12:35:00+01:00,MW,1.3280000000000003
Tiverton Junction,2024-04-17T12:40:00+01:00,MW,1.3500000000000005
Tiverton Junction,2024-04-17T12:45:00+01:00,MW,1.3579999999999997
Tiverton Junction,2024-04-17T12:50:00+01:00,MW,1.3779999999999997
Tiverton Junction,2024-04-17T12:55:00+01:00,MW,1.1399999999999997
Tiverton Junction,2024-04-17T13:00:00+01:00,MW,0.8609999999999998
Tiverton Junction,2024-04-17T13:05:00+01:00,MW,0.33199999999999985
Tiverton Junction,2024-04-17T13:10:00+01:00,MW,0.11800000000000033
Tiverton Junction,2024-04-17T13:15:00+01:00,MW,0.71
Tiverton Junction,2024-04-17T13:20:00+01:00,MW,1.1480000000000001
Tiverton Junction,2024-04-17T13:25:00+01:00,MW,1.3019999999999996
Tiverton Junction,2024-04-17T13:30:00+01:00,MW,1.0260000000000002
Tiverton Junction,2024-04-17T13:35:00+01:00,MW,0.3979999999999997
Tiverton Junction,2024-04-17T13:40:00+01:00,MW,0.39700000000000024
Tiverton Junction,2024-04-17T13:45:00+01:00,MW,1.1260000000000008
Tiverton Junction,2024-04-17T13:50:00+01:00,MW,0.8030000000000004
Tiverton Junction,2024-04-17T13:55:00+01:00,MW,0.45500000000000007
Tiverton Junction,2024-04-17T14:00:00+01:00,MW,0.05799999999999983
Tiverton Junction,2024-04-17T14:05:00+01:00,MW,0.04300000000000015
Tiverton Junction,2024-04-17T14:10:00+01:00,MW,1.0860000000000003
Tiverton Junction,2024-04-17T14:15:00+01:00,MW,1.146
Tiverton Junction,2024-04-17T14:20:00+01:00,MW,0.815
Tiverton Junction,2024-04-17T14:25:00+01:00,MW,0.4910000000000001
Tiverton Junction,2024-04-17T14:30:00+01:00,MW,0.5140000000000002
Tiverton Junction,2024-04-17T14:35:00+01:00,MW,0.851
Tiverton Junction,2024-04-17T14:40:00+01:00,MW,0.03399999999999981
Tiverton Junction,2024-04-17T14:45:00+01:00,MW,0.6200000000000001
Tiverton Junction,2024-04-17T14:50:00+01:00,MW,1.0099999999999998
Tiverton Junction,2024-04-17T14:55:00+01:00,MW,1.0410000000000001
Tiverton Junction,2024-04-17T15:00:00+01:00,MW,1.1199999999999994
Tiverton Junction,2024-04-17T15:05:00+01:00,MW,0.8449999999999998
Tiverton Junction,2024-04-17T15:10:00+01:00,MW,0.508
Tiverton Junction,2024-04-17T15:15:00+01:00,MW,0.42600000000000016
Tiverton Junction,2024-04-17T15:20:00+01:00,MW,-0.29100000000000037
Tiverton Junction,2024-04-17T15:25:00+01:00,MW,0.9170000000000003
Tiverton Junction,2024-04-17T15:30:00+01:00,MW,1.2069999999999999
Tiverton Junction,2024-04-17T15:35:00+01:00,MW,1.365
Tiverton Junction,2024-04-17T15:40:00+01:00,MW,1.427
Tiverton Junction,2024-04-17T15:45:00+01:00,MW,1.3519999999999999
Tiverton Junction,2024-04-17T15:50:00+01:00,MW,1.5950000000000006
Tiverton Junction,2024-04-17T15:55:00+01:00,MW,1.612
Tiverton Junction,2024-04-17T16:00:00+01:00,MW,1.5389999999999997
Tiverton Junction,2024-04-17T16:05:00+01:00,MW,1.4900000000000002
Tiverton Junction,2024-04-17T16:10:00+01:00,MW,1.7799999999999994
Tiverton Junction,2024-04-17T16:15:00+01:00,MW,1.9049999999999998
Tiverton Junction,2024-04-17T16:20:00+01:00,MW,1.8389999999999995
Tiverton Junction,2024-04-17T16:25:00+01:00,MW,1.7930000000000001
Tiverton Junction,2024-04-17T16:30:00+01:00,MW,1.75
Tiverton Junction,2024-04-17T16:35:00+01:00,MW,1.5779999999999998
Tiverton Junction,2024-04-17T16:40:00+01:00,MW,1.6909999999999998
Tiverton Junction,2024-04-17T16:45:00+01:00,MW,1.6879999999999993
Tiverton Junction,2024-04-17T16:50:00+01:00,MW,1.7789999999999995
Tiverton Junction,2024-04-17T16:55:00+01:00,MW,1.5790000000000002
Tiverton Junction,2024-04-17T17:00:00+01:00,MW,1.4739999999999998
Tiverton Junction,2024-04-17T17:05:00+01:00,MW,1.5180000000000002
Tiverton Junction,2024-04-17T17:10:00+01:00,MW,1.6050000000000004
Tiverton Junction,2024-04-17T17:15:00+01:00,MW,1.475
Tiverton Junction,2024-04-17T17:20:00+01:00,MW,1.3449999999999998
Tiverton Junction,2024-04-17T17:25:00+01:00,MW,1.4489999999999994
Tiverton Junction,2024-04-17T17:30:00+01:00,MW,1.605
Tiverton Junction,2024-04-17T17:35:00+01:00,MW,1.556
Tiverton Junction,2024-04-17T17:40:00+01:00,MW,1.4500000000000002
Tiverton Junction,2024-04-17T17:45:00+01:00,MW,1.3210000000000002
Tiverton Junction,2024-04-17T17:50:00+01:00,MW,1.4289999999999998
Tiverton Junction,2024-04-17T17:55:00+01:00,MW,1.5950000000000002
Tiverton Junction,2024-04-17T18:00:00+01:00,MW,1.444
Tiverton Junction,2024-04-17T18:05:00+01:00,MW,1.4929999999999999
Tiverton Junction,2024-04-17T18:10:00+01:00,MW,1.2880000000000003
Tiverton Junction,2024-04-17T18:15:00+01:00,MW,1.5999999999999996
Tiverton Junction,2024-04-17T18:20:00+01:00,MW,1.6389999999999993
Tiverton Junction,2024-04-17T18:25:00+01:00,MW,1.6929999999999996
Tiverton Junction,2024-04-17T18:30:00+01:00,MW,1.544
Tiverton Junction,2024-04-17T18:35:00+01:00,MW,1.5560000000000005
Tiverton Junction,2024-04-17T18:40:00+01:00,MW,1.5479999999999996
Tiverton Junction,2024-04-17T18:45:00+01:00,MW,1.4969999999999994
Tiverton Junction,2024-04-17T18:50:00+01:00,MW,1.3779999999999997
Tiverton Junction,2024-04-17T18:55:00+01:00,MW,1.2480000000000002
Tiverton Junction,2024-04-17T19:00:00+01:00,MW,1.2949999999999995
Tiverton Junction,2024-04-17T19:05:00+01:00,MW,1.4110000000000005
Tiverton Junction,2024-04-17T19:10:00+01:00,MW,1.4360000000000004
Tiverton Junction,2024-04-17T19:15:00+01:00,MW,1.4700000000000002
Tiverton Junction,2024-04-17T19:20:00+01:00,MW,1.4789999999999996
Tiverton Junction,2024-04-17T19:25:00+01:00,MW,1.358000000000001
Tiverton Junction,2024-04-17T19:30:00+01:00,MW,1.4229999999999996
Tiverton Junction,2024-04-17T19:35:00+01:00,MW,1.354
Tiverton Junction,2024-04-17T19:40:00+01:00,MW,1.3880000000000003
Tiverton Junction,2024-04-17T19:45:00+01:00,MW,1.3999999999999995
Tiverton Junction,2024-04-17T19:50:00+01:00,MW,1.2410000000000005
Tiverton Junction,2024-04-17T19:55:00+01:00,MW,1.254
Tiverton Junction,2024-04-17T20:00:00+01:00,MW,1.236000000000001
Tiverton Junction,2024-04-17T20:05:00+01:00,MW,1.3850000000000002
Tiverton Junction,2024-04-17T20:10:00+01:00,MW,1.366999999999999
Tiverton Junction,2024-04-17T20:15:00+01:00,MW,1.3220000000000005
Tiverton Junction,2024-04-17T20:20:00+01:00,MW,1.2889999999999997
Tiverton Junction,2024-04-17T20:25:00+01:00,MW,1.407
Tiverton Junction,2024-04-17T20:30:00+01:00,MW,1.504
Tiverton Junction,2024-04-17T20:35:00+01:00,MW,1.4410000000000003
Tiverton Junction,2024-04-17T20:40:00+01:00,MW,1.4730000000000003
Tiverton Junction,2024-04-17T20:45:00+01:00,MW,1.3880000000000003
Tiverton Junction,2024-04-17T20:50:00+01:00,MW,1.2079999999999993
Tiverton Junction,2024-04-17T20:55:00+01:00,MW,1.330000000000001
Tiverton Junction,2024-04-17T21:00:00+01:00,MW,1.2449999999999992
Tiverton Junction,2024-04-17T21:05:00+01:00,MW,1.3359999999999994
Tiverton Junction,2024-04-17T21:10:00+01:00,MW,1.388
Tiverton Junction,2024-04-17T21:15:00+01:00,MW,1.4169999999999998
Tiverton Junction,2024-04-17T21:20:00+01:00,MW,1.4809999999999999
Tiverton Junction,2024-04-17T21:25:00+01:00,MW,1.2969999999999997
Tiverton Junction,2024-04-17T21:30:00+01:00,MW,1.4299999999999997
Tiverton Junction,2024-04-17T21:35:00+01:00,MW,1.5130000000000008
Tiverton Junction,2024-04-17T21:40:00+01:00,MW,1.504
Tiverton Junction,2024-04-17T21:45:00+01:00,MW,1.5030000000000001
Tiverton Junction,2024-04-17T21:50:00+01:00,MW,1.4890000000000003
Tiverton Junction,2024-04-17T21:55:00+01:00,MW,1.4060000000000001
Tiverton Junction,2024-04-17T22:00:00+01:00,MW,1.3729999999999998
Tiverton Junction,2024-04-17T22:05:00+01:00,MW,1.3360000000000003
Tiverton Junction,2024-04-17T22:10:00+01:00,MW,1.4089999999999998
Tiverton Junction,2024-04-17T22:15:00+01:00,MW,1.3850000000000007
Tiverton Junction,2024-04-17T22:20:00+01:00,MW,1.5440000000000005
Tiverton Junction,2024-04-17T22:25:00+01:00,MW,1.4229999999999996
Tiverton Junction,2024-04-17T22:30:00+01:00,MW,1.3610000000000002
Tiverton Junction,2024-04-17T22:35:00+01:00,MW,1.4280000000000004
Tiverton Junction,2024-04-17T22:40:00+01:00,MW,1.331
Tiverton Junction,2024-04-17T22:45:00+01:00,MW,1.3860000000000001
Tiverton Junction,2024-04-17T22:50:00+01:00,MW,1.1719999999999995
Tiverton Junction,2024-04-17T22:55:00+01:00,MW,1.1210000000000002
Tiverton Junction,2024-04-17T23:00:00+01:00,MW,1.0570000000000004
Tiverton Junction,2024-04-17T23:05:00+01:00,MW,1.0639999999999998
Tiverton Junction,2024-04-17T23:10:00+01:00,MW,1.066
Tiverton Junction,2024-04-17T23:15:00+01:00,MW,1.048
Tiverton Junction,2024-04-17T23:20:00+01:00,MW,0.7760000000000002
Tiverton Junction,2024-04-17T23:25:00+01:00,MW,0.6190000000000004
Tiverton Junction,2024-04-17T23:30:00+01:00,MW,0.5299999999999998
Tiverton Junction,2024-04-17T23:35:00+01:00,MW,0.6009999999999998
Tiverton Junction,2024-04-17T23:40:00+01:00,MW,0.605
Tiverton Junction,2024-04-17T23:45:00+01:00,MW,0.7090000000000003
Tiverton Junction,2024-04-17T23:50:00+01:00,MW,0.6849999999999998
Tiverton Junction,2024-04-17T23:55:00+01:00,MW,0.7309999999999994
Tiverton Junction,2024-04-18T00:00:00+01:00,MW,0.7819999999999994
